LiveATC.Net - Listen to live air traffic control over the Internet!

Find LiveATC Audio Streams


Airport/ARTCC Code

Frequency Search
(e.g., 124.400, 128.75)
Site-wide search
 


Browse LiveATC Feeds
LiveATC Coverage Map
Top 50 LiveATC Feeds
Bad Weather Areas

LiveATC FAQ
Offer a LiveATC Feed
Contact LiveATC.net
Press Inquiries

LiveATC on iPhone
LiveATC on Android

Windows Phone
Windows 8/10

LiveATC Mobile
(Mobile browser)

ATC Audio Archives
Interesting Recordings

LiveATC Forums

Home Page
About LiveATC.net
Make a Donation
LiveATC Store

Terms of Use
Privacy Policy

Canadian Air Freqs

AIRMETs/SIGMETs

FAA Airport Status
Nat'l Airspace Status
Arrival Demand Charts


Server Software By:
Icecast.org
Liquidsoap

Select an area of interest:
U.S. Feeds: Class B Airports | Class C Airports | Class D/Other Airports | ARTCC (Centers)
International Feeds: Canada | Europe | Oceania | Asia | South America | North/Central America | Africa
Misc Feeds: HF Feeds
Search by ICAO/IATA airport code:   (e.g., kbos, kjfk, lax, eham, etc.)


Currently Available Live Feeds: 1868
Status Updated: Thu Oct 19 2017 23:48:01 UTC


NOTICE

Unauthorized use prohibited. See LiveATC.net Terms of Service

Asia Airport Feeds

 

LTAC Tower/Approach (Archives)
Ankara, Turkey

Feed Status: UP

Click on your favorite media player to listen:
Listen with WinAmp to LTAC Tower/Approach  Listen with iTunes to LTAC Tower/Approach  Click here to listen if using Real Player  Click here to listen if using Windows Media Player

Or simply listen in your browser:

Listen right in your browser(in browser, requires Flash)

LTAC 192320Z VRB01KT CAVOK 04/M01 Q1021 NOSIG

LTAC Flight Activity (Flightaware)

Listeners: 0 out of 1107 total

Ankara Approach: 119.600
Ankara Approach (Center): 131.050
Ankara Approach (Upper): 132.150
Ankara Approach (West): 120.600
Ankara Approach (West): 128.800
Ankara Approach (West/Upper): 128.450
Esenboga Tower: 118.100

LTAF Tower/Approach (Archives)
Adana, Turkey

Feed Status: UP

Click on your favorite media player to listen:
Listen with WinAmp to LTAF Tower/Approach  Listen with iTunes to LTAF Tower/Approach  Click here to listen if using Real Player  Click here to listen if using Windows Media Player

Or simply listen in your browser:

Listen right in your browser(in browser, requires Flash)

LTAF 192320Z 00000KT CAVOK 16/08 Q1015 NOSIG

LTAF Flight Activity (Flightaware)

Listeners: 0 out of 1107 total

Adana Approach: 118.300
Adana Tower: 131.100
Adana Tower: 121.100

HF CWP 8903
Manila, Philippines

Feed Status: DOWN
Offline since: 2017-10-12 03:53:02 UTC

HF CWP: 8.903

HF CWP-1 11384
Manila, Philippines

Feed Status: DOWN
Offline since: 2017-08-22 08:46:04 UTC

HF CWP-1 Toyko/Manila/San Francisco: 11.384

HF SEA-2 5655
Manila, Philippines

Feed Status: DOWN
Offline since: 2017-08-22 08:46:04 UTC

HF SEA-2 Manila: 5.655

HF SEA-2 6556
Manila, Philippines

Feed Status: DOWN
Offline since: 2017-08-22 08:46:04 UTC

HF CEP2: 11.282
HF SEA-2 Singapore: 6.556

Receiver location: Nova Scotia, Canada

HF SEA-2 8942
Manila, Philippines

Feed Status: DOWN
Offline since: 2017-10-12 03:53:02 UTC

HF SEA-2: 8.942

HF SEA-3 11396
Manila, Philippines

Feed Status: DOWN
Offline since: 2017-08-22 08:46:04 UTC

HF SEA-3 Brisbane/Ujung Pandang: 11.396

OKBK Gnd/Twr/App/Radar (Archives)
Kuwait City, Kuwait

Feed Status: UP

Click on your favorite media player to listen:
Listen with WinAmp to OKBK Gnd/Twr/App/Radar  Listen with iTunes to OKBK Gnd/Twr/App/Radar  Click here to listen if using Real Player  Click here to listen if using Windows Media Player

Or simply listen in your browser:

Listen right in your browser(in browser, requires Flash)

OKBK 192300Z 25003KT CAVOK 20/00 Q1014 NOSIG


Listeners: 0 out of 1107 total

Kuwait Approach: 121.300
Kuwait Approach: 124.800
Kuwait Ground: 121.700
Kuwait Radar (Center): 125.300
Kuwait Tower: 118.300

OPKC Gnd/Twr/Radar #1 (Archives)
Karachi, Pakistan

Feed Status: UP

Click on your favorite media player to listen:
Listen with WinAmp to OPKC Gnd/Twr/Radar #1  Listen with iTunes to OPKC Gnd/Twr/Radar #1  Click here to listen if using Real Player  Click here to listen if using Windows Media Player

Or simply listen in your browser:

Listen right in your browser(in browser, requires Flash)

OPKC 192255Z 26004KT 5000 FU NSC 26/23 Q1009 NOSIG


Listeners: 0 out of 1107 total

Karachi Ground: 121.600
Karachi Radar: 125.500
Karachi Tower: 118.300

OPKC Gnd/Twr/Radar #2 (Archives)
Karachi, Pakistan

Feed Status: UP

Click on your favorite media player to listen:
Listen with WinAmp to OPKC Gnd/Twr/Radar #2  Listen with iTunes to OPKC Gnd/Twr/Radar #2  Click here to listen if using Real Player  Click here to listen if using Windows Media Player

Or simply listen in your browser:

Listen right in your browser(in browser, requires Flash)

OPKC 192255Z 26004KT 5000 FU NSC 26/23 Q1009 NOSIG


Listeners: 0 out of 1107 total

Karachi East Sector: 126.500
Karachi Ground: 121.600
Karachi Radar: 125.500
Karachi South Sector (1830-0230 UTC): 133.025
Karachi Tower: 118.300
Karachi West Sector: 128.350

OPLA ATIS (Archives)
Lahore, Pakistan

Feed Status: UP

Click on your favorite media player to listen:
Listen with WinAmp to OPLA ATIS  Listen with iTunes to OPLA ATIS  Click here to listen if using Real Player  Click here to listen if using Windows Media Player

Or simply listen in your browser:

Listen right in your browser(in browser, requires Flash)

OPLA 192225Z 00000KT 4000 FU NSC 23/18 Q1009/A29.79


Listeners: 0 out of 1107 total

Lahore ATIS: 126.300

OPLA/OPLH Gnd/Twr/App (Archives)
Lahore, Pakistan

Feed Status: UP

Click on your favorite media player to listen:
Listen with WinAmp to OPLA/OPLH Gnd/Twr/App  Listen with iTunes to OPLA/OPLH Gnd/Twr/App  Click here to listen if using Real Player  Click here to listen if using Windows Media Player

Or simply listen in your browser:

Listen right in your browser(in browser, requires Flash)

OPLA 192225Z 00000KT 4000 FU NSC 23/18 Q1009/A29.79


Listeners: 0 out of 1107 total

Lahore Approach: 121.300
Lahore Approach: 125.300
Lahore Control: 127.500
Lahore Ground: 118.400
Lahore Tower: 118.100
Lahore Tower: 121.800
Walton (OPLH) Tower: 119.400

OPLA/OPLH Gnd/Twr/App (Archives)
Lahore, Pakistan

Feed Status: UP

Click on your favorite media player to listen:
Listen with WinAmp to OPLA/OPLH Gnd/Twr/App  Listen with iTunes to OPLA/OPLH Gnd/Twr/App  Click here to listen if using Real Player  Click here to listen if using Windows Media Player

Or simply listen in your browser:

Listen right in your browser(in browser, requires Flash)

OPLA 192225Z 00000KT 4000 FU NSC 23/18 Q1009/A29.79


Listeners: 0 out of 1107 total

Lahore Approach: 121.300
Lahore Approach: 125.300
Lahore Control: 127.500
Lahore Ground: 118.400
Lahore Tower: 118.100
Lahore Tower: 121.800
Walton (OPLH) Tower: 119.400

OPPS Tower/App
Peshawar, Pakistan

Feed Status: DOWN
Offline since: 2017-10-18 13:30:03 UTC
OPPS 192300Z 23004KT 3000 HZ SKC 20/11 Q1010

Peshawar Approach: 125.600
Peshawar Tower: 121.300
Peshawar Tower: 122.900

OPRN Approach (Archives)
Islamabad, Pakistan

Feed Status: UP

Click on your favorite media player to listen:
Listen with WinAmp to OPRN Approach  Listen with iTunes to OPRN Approach  Click here to listen if using Real Player  Click here to listen if using Windows Media Player

Or simply listen in your browser:

Listen right in your browser(in browser, requires Flash)

OPRN 192300Z 00000KT 4000 HZ NSC 19/13 Q1012.0/29.89


Listeners: 0 out of 1107 total

Islamabad Approach: 124.900

OPRN ATIS (Archives)
Islamabad, Pakistan

Feed Status: UP

Click on your favorite media player to listen:
Listen with WinAmp to OPRN ATIS  Listen with iTunes to OPRN ATIS  Click here to listen if using Real Player  Click here to listen if using Windows Media Player

Or simply listen in your browser:

Listen right in your browser(in browser, requires Flash)

OPRN 192300Z 00000KT 4000 HZ NSC 19/13 Q1012.0/29.89


Listeners: 0 out of 1107 total

Islamabad ATIS: 129.600

OPRN Tower (Archives)
Islamabad, Pakistan

Feed Status: UP

Click on your favorite media player to listen:
Listen with WinAmp to OPRN Tower  Listen with iTunes to OPRN Tower  Click here to listen if using Real Player  Click here to listen if using Windows Media Player

Or simply listen in your browser:

Listen right in your browser(in browser, requires Flash)

OPRN 192300Z 00000KT 4000 HZ NSC 19/13 Q1012.0/29.89


Listeners: 0 out of 1107 total

Islamabad Tower: 123.700

OPRN Tower/App (Archives)
Islamabad, Pakistan

Feed Status: UP

Click on your favorite media player to listen:
Listen with WinAmp to OPRN Tower/App  Listen with iTunes to OPRN Tower/App  Click here to listen if using Real Player  Click here to listen if using Windows Media Player

Or simply listen in your browser:

Listen right in your browser(in browser, requires Flash)

OPRN 192300Z 00000KT 4000 HZ NSC 19/13 Q1012.0/29.89


Listeners: 0 out of 1107 total

Islamabad Approach: 124.900
Islamabad Tower: 123.700

ORMM Gnd/Twr/App (Archives)
Basra, Iraq

Feed Status: UP

Click on your favorite media player to listen:
Listen with WinAmp to ORMM Gnd/Twr/App  Listen with iTunes to ORMM Gnd/Twr/App  Click here to listen if using Real Player  Click here to listen if using Windows Media Player

Or simply listen in your browser:

Listen right in your browser(in browser, requires Flash)

ORMM 192300Z 27004KT CAVOK 18/04 Q1014 NOSIG


Listeners: 0 out of 1107 total

Basra Approach: 119.400
Basra Ground: 125.900
Basra Ops: 132.700
Basra Tower: 118.700

RCKH Ground
Kaohsiung, Taiwan

Feed Status: DOWN
Offline since: 2015-05-24 11:58:03 UTC
RCKH 192300Z 34006KT 310V050 7000 FEW007 BKN012 BKN030 26/23 Q1008 NOSIG RMK A2977

Kaohsiung Ground: 121.900

RCKH Tower
Kaohsiung, Taiwan

Feed Status: DOWN
Offline since: 2015-06-03 18:36:03 UTC
RCKH 192300Z 34006KT 310V050 7000 FEW007 BKN012 BKN030 26/23 Q1008 NOSIG RMK A2977

Kaohsiung Tower: 118.700

RCSS Tower
Taipei, Taiwan

Feed Status: DOWN
Offline since: 2017-08-31 14:55:02 UTC
RCSS 192300Z 10009KT 9999 -DZ FEW012 SCT025 BKN045 23/21 Q1012 NOSIG RMK A2989

Songshan Tower: 118.100

RCTP Tower (Archives)
Taipei, Taiwan

Feed Status: UP

Click on your favorite media player to listen:
Listen with WinAmp to RCTP Tower  Listen with iTunes to RCTP Tower  Click here to listen if using Real Player  Click here to listen if using Windows Media Player

Or simply listen in your browser:

Listen right in your browser(in browser, requires Flash)

RCTP 192323Z 06018KT 4000 -RA FEW006 BKN009 BKN020 22/21 Q1012 NOSIG RMK A2989

RCTP Flight Activity (Flightaware)

Listeners: 1 out of 1107 total

Taipei Tower: 118.700

RJAA Approach (Archives)
Tokyo, Japan

Feed Status: UP

Click on your favorite media player to listen:
Listen with WinAmp to RJAA Approach  Listen with iTunes to RJAA Approach  Click here to listen if using Real Player  Click here to listen if using Windows Media Player

Or simply listen in your browser:

Listen right in your browser(in browser, requires Flash)

RJAA 192309Z 34014KT 6000 -RA BR FEW002 SCT005 BKN006 13/13 Q1017 RMK 1ST002 4ST005 6ST006 A3003 BR E-SE

RJAA Flight Activity (Flightaware)

Listeners: 7 out of 1107 total

Tokyo Approach: 124.400

RJAA Clearance Delivery #1 (Archives)
Tokyo, Japan

Feed Status: UP

Click on your favorite media player to listen:
Listen with WinAmp to RJAA Clearance Delivery #1  Listen with iTunes to RJAA Clearance Delivery #1  Click here to listen if using Real Player  Click here to listen if using Windows Media Player

Or simply listen in your browser:

Listen right in your browser(in browser, requires Flash)

RJAA 192309Z 34014KT 6000 -RA BR FEW002 SCT005 BKN006 13/13 Q1017 RMK 1ST002 4ST005 6ST006 A3003 BR E-SE

RJAA Flight Activity (Flightaware)

Listeners: 0 out of 1107 total

Narita Clearance Delivery: 121.650

RJAA Clearance Delivery #2 (Archives)
Tokyo, Japan

Feed Status: UP

Click on your favorite media player to listen:
Listen with WinAmp to RJAA Clearance Delivery #2  Listen with iTunes to RJAA Clearance Delivery #2  Click here to listen if using Real Player  Click here to listen if using Windows Media Player

Or simply listen in your browser:

Listen right in your browser(in browser, requires Flash)

RJAA 192309Z 34014KT 6000 -RA BR FEW002 SCT005 BKN006 13/13 Q1017 RMK 1ST002 4ST005 6ST006 A3003 BR E-SE

RJAA Flight Activity (Flightaware)

Listeners: 0 out of 1107 total

Narita Clearance Delivery: 121.900

RJAA Departure #1 (Archives)
Tokyo, Japan

Feed Status: UP

Click on your favorite media player to listen:
Listen with WinAmp to RJAA Departure #1  Listen with iTunes to RJAA Departure #1  Click here to listen if using Real Player  Click here to listen if using Windows Media Player

Or simply listen in your browser:

Listen right in your browser(in browser, requires Flash)

RJAA 192309Z 34014KT 6000 -RA BR FEW002 SCT005 BKN006 13/13 Q1017 RMK 1ST002 4ST005 6ST006 A3003 BR E-SE

RJAA Flight Activity (Flightaware)

Listeners: 2 out of 1107 total

Tokyo Departure: 124.200

RJAA Departure #2 (Archives)
Tokyo, Japan

Feed Status: UP

Click on your favorite media player to listen:
Listen with WinAmp to RJAA Departure #2  Listen with iTunes to RJAA Departure #2  Click here to listen if using Real Player  Click here to listen if using Windows Media Player

Or simply listen in your browser:

Listen right in your browser(in browser, requires Flash)

RJAA 192309Z 34014KT 6000 -RA BR FEW002 SCT005 BKN006 13/13 Q1017 RMK 1ST002 4ST005 6ST006 A3003 BR E-SE

RJAA Flight Activity (Flightaware)

Listeners: 0 out of 1107 total

Tokyo Departure: 119.600

RJAA Emergency/Guard (Archives)
Tokyo, Japan

Feed Status: UP

Click on your favorite media player to listen:
Listen with WinAmp to RJAA Emergency/Guard  Listen with iTunes to RJAA Emergency/Guard  Click here to listen if using Real Player  Click here to listen if using Windows Media Player

Or simply listen in your browser:

Listen right in your browser(in browser, requires Flash)

RJAA 192309Z 34014KT 6000 -RA BR FEW002 SCT005 BKN006 13/13 Q1017 RMK 1ST002 4ST005 6ST006 A3003 BR E-SE

RJAA Flight Activity (Flightaware)

Listeners: 0 out of 1107 total

Emergency/Guard: 121.500

RJAA Ground #1 (Archives)
Tokyo, Japan

Feed Status: UP

Click on your favorite media player to listen:
Listen with WinAmp to RJAA Ground #1  Listen with iTunes to RJAA Ground #1  Click here to listen if using Real Player  Click here to listen if using Windows Media Player

Or simply listen in your browser:

Listen right in your browser(in browser, requires Flash)

RJAA 192309Z 34014KT 6000 -RA BR FEW002 SCT005 BKN006 13/13 Q1017 RMK 1ST002 4ST005 6ST006 A3003 BR E-SE

RJAA Flight Activity (Flightaware)

Listeners: 0 out of 1107 total

Narita Ground: 121.850

RJAA Ground #2 (Archives)
Tokyo, Japan

Feed Status: UP

Click on your favorite media player to listen:
Listen with WinAmp to RJAA Ground #2  Listen with iTunes to RJAA Ground #2  Click here to listen if using Real Player  Click here to listen if using Windows Media Player

Or simply listen in your browser:

Listen right in your browser(in browser, requires Flash)

RJAA 192309Z 34014KT 6000 -RA BR FEW002 SCT005 BKN006 13/13 Q1017 RMK 1ST002 4ST005 6ST006 A3003 BR E-SE

RJAA Flight Activity (Flightaware)

Listeners: 0 out of 1107 total

Narita Ground: 121.950

RJAA Radar (Archives)
Tokyo, Japan

Feed Status: UP

Click on your favorite media player to listen:
Listen with WinAmp to RJAA Radar  Listen with iTunes to RJAA Radar  Click here to listen if using Real Player  Click here to listen if using Windows Media Player

Or simply listen in your browser:

Listen right in your browser(in browser, requires Flash)

RJAA 192309Z 34014KT 6000 -RA BR FEW002 SCT005 BKN006 13/13 Q1017 RMK 1ST002 4ST005 6ST006 A3003 BR E-SE

RJAA Flight Activity (Flightaware)

Listeners: 0 out of 1107 total

Tokyo Radar: 120.200

RJAA Ramp #1 (Archives)
Tokyo, Japan

Feed Status: UP

Click on your favorite media player to listen:
Listen with WinAmp to RJAA Ramp #1  Listen with iTunes to RJAA Ramp #1  Click here to listen if using Real Player  Click here to listen if using Windows Media Player

Or simply listen in your browser:

Listen right in your browser(in browser, requires Flash)

RJAA 192309Z 34014KT 6000 -RA BR FEW002 SCT005 BKN006 13/13 Q1017 RMK 1ST002 4ST005 6ST006 A3003 BR E-SE

RJAA Flight Activity (Flightaware)

Listeners: 0 out of 1107 total

Narita Ramp: 121.600

RJAA Ramp #2 (Archives)
Tokyo, Japan

Feed Status: UP

Click on your favorite media player to listen:
Listen with WinAmp to RJAA Ramp #2  Listen with iTunes to RJAA Ramp #2  Click here to listen if using Real Player  Click here to listen if using Windows Media Player

Or simply listen in your browser:

Listen right in your browser(in browser, requires Flash)

RJAA 192309Z 34014KT 6000 -RA BR FEW002 SCT005 BKN006 13/13 Q1017 RMK 1ST002 4ST005 6ST006 A3003 BR E-SE

RJAA Flight Activity (Flightaware)

Listeners: 0 out of 1107 total

Narita Ramp: 121.750

RJAA TCA (Archives)
Tokyo, Japan

Feed Status: UP

Click on your favorite media player to listen:
Listen with WinAmp to RJAA TCA  Listen with iTunes to RJAA TCA  Click here to listen if using Real Player  Click here to listen if using Windows Media Player

Or simply listen in your browser:

Listen right in your browser(in browser, requires Flash)

RJAA 192309Z 34014KT 6000 -RA BR FEW002 SCT005 BKN006 13/13 Q1017 RMK 1ST002 4ST005 6ST006 A3003 BR E-SE

RJAA Flight Activity (Flightaware)

Listeners: 0 out of 1107 total

Tokyo TCA (Terminal Control Area): 119.450

RJAA Tokyo Control (Archives)
Tokyo, Japan

Feed Status: UP

Click on your favorite media player to listen:
Listen with WinAmp to RJAA Tokyo Control  Listen with iTunes to RJAA Tokyo Control  Click here to listen if using Real Player  Click here to listen if using Windows Media Player

Or simply listen in your browser:

Listen right in your browser(in browser, requires Flash)

RJAA 192309Z 34014KT 6000 -RA BR FEW002 SCT005 BKN006 13/13 Q1017 RMK 1ST002 4ST005 6ST006 A3003 BR E-SE

RJAA Flight Activity (Flightaware)

Listeners: 1 out of 1107 total

Tokyo Control: 125.900

RJAA Tower #1 (Archives)
Tokyo, Japan

Feed Status: UP

Click on your favorite media player to listen:
Listen with WinAmp to RJAA Tower #1  Listen with iTunes to RJAA Tower #1  Click here to listen if using Real Player  Click here to listen if using Windows Media Player

Or simply listen in your browser:

Listen right in your browser(in browser, requires Flash)

RJAA 192309Z 34014KT 6000 -RA BR FEW002 SCT005 BKN006 13/13 Q1017 RMK 1ST002 4ST005 6ST006 A3003 BR E-SE

RJAA Flight Activity (Flightaware)

Listeners: 5 out of 1107 total

Narita Tower (Rwy 16R/34L): 118.200

RJAA Tower #2 (Archives)
Tokyo, Japan

Feed Status: UP

Click on your favorite media player to listen:
Listen with WinAmp to RJAA Tower #2  Listen with iTunes to RJAA Tower #2  Click here to listen if using Real Player  Click here to listen if using Windows Media Player

Or simply listen in your browser:

Listen right in your browser(in browser, requires Flash)

RJAA 192309Z 34014KT 6000 -RA BR FEW002 SCT005 BKN006 13/13 Q1017 RMK 1ST002 4ST005 6ST006 A3003 BR E-SE

RJAA Flight Activity (Flightaware)

Listeners: 1 out of 1107 total

Narita Tower (Rwy 16L/34R): 118.350

RJSF RDO (Archives)
Sukagawa, Japan

Feed Status: UP

Click on your favorite media player to listen:
Listen with WinAmp to RJSF RDO  Listen with iTunes to RJSF RDO  Click here to listen if using Real Player  Click here to listen if using Windows Media Player

Or simply listen in your browser:

Listen right in your browser(in browser, requires Flash)

RJSF 192300Z 36010KT 4000 -RA BR FEW001 SCT002 BKN003 10/10 Q1019

RJSF Flight Activity (Flightaware)

Listeners: 4 out of 1107 total

Fukushima Radio: 118.050

RJTT App/Dep (Archives)
Tokyo, Japan

Feed Status: UP

Click on your favorite media player to listen:
Listen with WinAmp to RJTT App/Dep  Listen with iTunes to RJTT App/Dep  Click here to listen if using Real Player  Click here to listen if using Windows Media Player

Or simply listen in your browser:

Listen right in your browser(in browser, requires Flash)

RJTT 192300Z 34014KT 6000 -RA FEW005 SCT007 BKN015 14/13 Q1017 BECMG FEW005 BKN008 RMK 1ST005 4ST007 6SC015 A3005

RJTT Flight Activity (Flightaware)

Listeners: 6 out of 1107 total

Tokyo Approach: 119.100
Tokyo Approach: 119.400
Tokyo Departure: 120.800
Tokyo Departure: 126.000

RJTT Approach (Archives)
Tokyo, Japan

Feed Status: UP

Click on your favorite media player to listen:
Listen with WinAmp to RJTT Approach  Listen with iTunes to RJTT Approach  Click here to listen if using Real Player  Click here to listen if using Windows Media Player

Or simply listen in your browser:

Listen right in your browser(in browser, requires Flash)

RJTT 192300Z 34014KT 6000 -RA FEW005 SCT007 BKN015 14/13 Q1017 BECMG FEW005 BKN008 RMK 1ST005 4ST007 6SC015 A3005

RJTT Flight Activity (Flightaware)

Listeners: 4 out of 1107 total

Tokyo Approach: 119.100
Tokyo Approach: 119.400

RJTT ATIS (Archives)
Tokyo, Japan

Feed Status: UP

Click on your favorite media player to listen:
Listen with WinAmp to RJTT ATIS  Listen with iTunes to RJTT ATIS  Click here to listen if using Real Player  Click here to listen if using Windows Media Player

Or simply listen in your browser:

Listen right in your browser(in browser, requires Flash)

RJTT 192300Z 34014KT 6000 -RA FEW005 SCT007 BKN015 14/13 Q1017 BECMG FEW005 BKN008 RMK 1ST005 4ST007 6SC015 A3005

RJTT Flight Activity (Flightaware)

Listeners: 0 out of 1107 total

Tokyo ATIS: 128.800

RJTT Company Channels (Archives)
Tokyo, Japan

Feed Status: UP

Click on your favorite media player to listen:
Listen with WinAmp to RJTT Company Channels  Listen with iTunes to RJTT Company Channels  Click here to listen if using Real Player  Click here to listen if using Windows Media Player

Or simply listen in your browser:

Listen right in your browser(in browser, requires Flash)

RJTT 192300Z 34014KT 6000 -RA FEW005 SCT007 BKN015 14/13 Q1017 BECMG FEW005 BKN008 RMK 1ST005 4ST007 6SC015 A3005

RJTT Flight Activity (Flightaware)

Listeners: 8 out of 1107 total

Company TBD: 128.500
Company TBD: 131.850
Company TBD: 129.725
Company TBD: 129.700
Company TBD: 131.900
Company TBD: 129.850
Company TBD: 128.975
Company TBD: 123.675
Company TBD: 132.075

RJTT Departure (Archives)
Tokyo, Japan

Feed Status: UP

Click on your favorite media player to listen:
Listen with WinAmp to RJTT Departure  Listen with iTunes to RJTT Departure  Click here to listen if using Real Player  Click here to listen if using Windows Media Player

Or simply listen in your browser:

Listen right in your browser(in browser, requires Flash)

RJTT 192300Z 34014KT 6000 -RA FEW005 SCT007 BKN015 14/13 Q1017 BECMG FEW005 BKN008 RMK 1ST005 4ST007 6SC015 A3005

RJTT Flight Activity (Flightaware)

Listeners: 0 out of 1107 total

Tokyo Departure: 120.800
Tokyo Departure: 126.000

RJTT Tokyo Control (Archives)
Tokyo, Japan

Feed Status: UP

Click on your favorite media player to listen:
Listen with WinAmp to RJTT Tokyo Control  Listen with iTunes to RJTT Tokyo Control  Click here to listen if using Real Player  Click here to listen if using Windows Media Player

Or simply listen in your browser:

Listen right in your browser(in browser, requires Flash)

RJTT 192300Z 34014KT 6000 -RA FEW005 SCT007 BKN015 14/13 Q1017 BECMG FEW005 BKN008 RMK 1ST005 4ST007 6SC015 A3005

RJTT Flight Activity (Flightaware)

Listeners: 16 out of 1107 total

Tokyo Control: 133.700
Tokyo Control: 125.900
Tokyo Control: 120.500

RJTT Twr/TCA (Archives)
Tokyo, Japan

Feed Status: UP

Click on your favorite media player to listen:
Listen with WinAmp to RJTT Twr/TCA  Listen with iTunes to RJTT Twr/TCA  Click here to listen if using Real Player  Click here to listen if using Windows Media Player

Or simply listen in your browser:

Listen right in your browser(in browser, requires Flash)

RJTT 192300Z 34014KT 6000 -RA FEW005 SCT007 BKN015 14/13 Q1017 BECMG FEW005 BKN008 RMK 1ST005 4ST007 6SC015 A3005

RJTT Flight Activity (Flightaware)

Listeners: 10 out of 1107 total

Tokyo TCA: 124.750
Tokyo Tower: 124.350
Tokyo Tower: 118.725
Tokyo Tower: 118.575
Tokyo Tower: 118.100

RKSG Gnd/Twr/App (Archives)
Pyeongtaek, Korea, Republic of

Feed Status: UP

Click on your favorite media player to listen:
Listen with WinAmp to RKSG Gnd/Twr/App  Listen with iTunes to RKSG Gnd/Twr/App  Click here to listen if using Real Player  Click here to listen if using Windows Media Player

Or simply listen in your browser:

Listen right in your browser(in browser, requires Flash)

RKSG 192256Z 00000KT 4SM BR CLR 11/11 A3012 RMK AO2A VIS S 2 SLP203 T01130113 PWINO TSNO $

RKSG Flight Activity (Flightaware)

Listeners: 1 out of 1107 total

Desiderio Final: 255.800
Desiderio GCA: 226.800
Desiderio GCA: 127.000
Desiderio Ground (Camp Humphreys A-511 AAF): 119.500
Desiderio Ground UHF: 229.700
Desiderio Ops: 294.100
Desiderio Tower (Camp Humphreys A-511 AAF): 122.500
Desiderio Tower UHF: 257.800

RKRR Incheon Control (Archives)
Incheon, Korea, Republic of

Feed Status: UP

Click on your favorite media player to listen:
Listen with WinAmp to RKRR Incheon Control  Listen with iTunes to RKRR Incheon Control  Click here to listen if using Real Player  Click here to listen if using Windows Media Player

Or simply listen in your browser:

Listen right in your browser(in browser, requires Flash)

RKSI 192300Z 07004KT 040V120 CAVOK 14/09 Q1020 NOSIG

RKSI Flight Activity (Flightaware)

Listeners: 9 out of 1107 total

Incheon Control North Sector (Primary): 128.700
Incheon Control North Sector (Secondary): 132.800
Incheon Control Northwest Sector (Primary): 126.175
Incheon Control Northwest Sector (Secondary): 123.725

RKSO Gnd/Twr/App (Archives)
Pyeongtaek, Korea, Republic of

Feed Status: UP

Click on your favorite media player to listen:
Listen with WinAmp to RKSO Gnd/Twr/App  Listen with iTunes to RKSO Gnd/Twr/App  Click here to listen if using Real Player  Click here to listen if using Windows Media Player

Or simply listen in your browser:

Listen right in your browser(in browser, requires Flash)

RKSO 192255Z 00000KT 7SM CLR 12/12 A3013 RMK AO2A SLPNO ALSTG DATA ESTMD WND DATA ESTMD TEMP DATA ESTMD $

RKSO Flight Activity (Flightaware)

Listeners: 4 out of 1107 total

25 FS Ops: 229.000
36FS Ops: 371.300
Osan Air Base Approach/Departure: 127.900
Osan Air Base Approach/Departure: 133.650
Osan Air Base Ground: 132.450
Osan Air Base Tower: 122.100
Osan App/Dep UHF: 306.600
Osan App/Dep UHF: 234.300
Osan App/Dep UHF (possibly inactive): 306.300
Osan App/Dep UHF (possibly inactive): 363.100
Osan Ground UHF: 253.700
Osan SAR: 282.800
Osan SAR: 381.000
Osan SOF: 299.800
Osan Tower UHF: 308.800
Stallion Ops: 276.200

RPLL Approach/Departure
Manila, Philippines

Feed Status: DOWN
Offline since: 2017-01-25 05:39:03 UTC
RPLL 192300Z 00000KT 8000 FEW023 OVC100 BKN300 26/26 Q1005 NOSIG RMK A2968

Manila Approach/Departure: 121.100
Manila Approach/Departure: 119.700
Manila Approach/Departure: 127.700
Manila Approach/Departure: 125.700

RPLL Ground/Tower
Manila, Philippines

Feed Status: DOWN
Offline since: 2017-01-25 05:39:03 UTC
RPLL 192300Z 00000KT 8000 FEW023 OVC100 BKN300 26/26 Q1005 NOSIG RMK A2968

Manila Ground: 121.800
Manila Ground: 121.900
Manila Ground: 121.700
Manila Tower: 118.100

RPLL Tower (Archives)
Manila, Philippines

Feed Status: UP

Click on your favorite media player to listen:
Listen with WinAmp to RPLL Tower  Listen with iTunes to RPLL Tower  Click here to listen if using Real Player  Click here to listen if using Windows Media Player

Or simply listen in your browser:

Listen right in your browser(in browser, requires Flash)

RPLL 192300Z 00000KT 8000 FEW023 OVC100 BKN300 26/26 Q1005 NOSIG RMK A2968

RPLL Flight Activity (Flightaware)

Listeners: 1 out of 1107 total

Manila Tower: 118.100

RPUN Tower
Pili-Luzon Island, Philippines

Feed Status: DOWN
Offline since: 2017-10-02 10:34:03 UTC
METAR NOT AVAILABLE

Naga Tower: 122.100

HF CWP/SEA (Archives)
Pyeongtaek, Korea, Republic of

Feed Status: UP

Click on your favorite media player to listen:
Listen with WinAmp to HF CWP/SEA  Listen with iTunes to HF CWP/SEA  Click here to listen if using Real Player  Click here to listen if using Windows Media Player

Or simply listen in your browser:

Listen right in your browser(in browser, requires Flash)


Listeners: 0 out of 1107 total

CWP 1 (Tokyo): 11.384
CWP 1/2 (Tokyo): 13.300
CWP-1/2 (San Francisco): 17.904
CWP-1/2 (Tokyo/Manila): 8.903
CWP-1/2 (Tokyo/San Francisco): 21.985
SEA-2 (Manila): 8.942

UAAA Approach
Almaty, Kazakhstan

Feed Status: DOWN
Offline since: 2017-10-16 01:31:04 UTC
UAAA 192300Z 08002MPS 050V110 9999 SCT050CB BKN100 07/04 Q1029 R23R/CLRD65 NOSIG

Almaty Approach: 124.800

UAAA Tower
Almaty, Kazakhstan

Feed Status: DOWN
Offline since: 2017-10-16 01:31:04 UTC
UAAA 192300Z 08002MPS 050V110 9999 SCT050CB BKN100 07/04 Q1029 R23R/CLRD65 NOSIG

Almaty Tower: 119.400

UAAA Tower/Approach
Almaty, Kazakhstan

Feed Status: DOWN
Offline since: 2017-10-16 01:42:03 UTC
UAAA 192300Z 08002MPS 050V110 9999 SCT050CB BKN100 07/04 Q1029 R23R/CLRD65 NOSIG

Almaty Approach: 124.800
Almaty Tower: 119.400

UNNT Gnd/Twr/App/Radar/Misc (Archives)
Novosibirsk, Russia

Feed Status: UP

Click on your favorite media player to listen:
Listen with WinAmp to UNNT Gnd/Twr/App/Radar/Misc  Listen with iTunes to UNNT Gnd/Twr/App/Radar/Misc  Click here to listen if using Real Player  Click here to listen if using Windows Media Player

Or simply listen in your browser:

Listen right in your browser(in browser, requires Flash)

UNNT 192300Z 14005MPS 9999 -RA OVC035 06/04 Q1009 R07/290160 R16/290160 NOSIG RMK QFE747/0996

UNNT Flight Activity (Flightaware)

Listeners: 1 out of 1107 total

ACC_Novosibirsk-Control [5th military channel]: 128.500
ACC_Novosibirsk-Control [Southeast]: 126.100
ACC_Novosibirsk-Control [West]: 127.000
GPA_Kristallik [Severniy airfield]: 123.425
GPA_Sernisiy [Chkalovskiy airfield]: 124.750
GPA_Tomsk Information 1: 134.500
MIL_3 [3rd military channel]: 130.750
MIL_Larek [Shilovo facility]: 123.750
MIL_Maneken [Chkalovskiy airfield]: 123.550
MIL_Novosibirsk-1 [1st military channel]: 124.000
MIL_Noyabr' 31: 124.900
MIL_Trimaran: 124.500
SP_Air-to-Air: 123.450
SP_Air-to-Air 2: 123.400
SP_Common backup frequency: 129.000
SP_Emergency: 121.500
SP_Emergency 2: 123.100
SP_Flyoff: 124.375
SURF_Boarding: 163.425
SURF_Duty chart: 163.800
SURF_O&D Service: 163.325
SURF_Search & Rescue: 164.000
SURF_Security: 163.750
SURF_Tower surf: 163.650
SURF_Vehicles: 163.850
UNNT_Backup frequency: 127.100
UNNT_Novosibirsk-Approach: 127.500
UNNT_Novosibirsk-Ground: 121.700
UNNT_Novosibirsk-Radar: 122.000
UNNT_Novosibirsk-Tower: 118.500
UNNT_Novosibirsk-Transit: 131.600
UNNT_S7 FOCC: 131.925

UNOO Gnd/Tower/App (Archives)
Omsk, Russia

Feed Status: UP

Click on your favorite media player to listen:
Listen with WinAmp to UNOO Gnd/Tower/App  Listen with iTunes to UNOO Gnd/Tower/App  Click here to listen if using Real Player  Click here to listen if using Windows Media Player

Or simply listen in your browser:

Listen right in your browser(in browser, requires Flash)

UNOO 192300Z 17001MPS 3100 1100SW R07/1500D MIFG BR NSC 00/M01 Q1004 R07/CLRD60 NOSIG RMK QFE744

UNOO Flight Activity (Flightaware)

Listeners: 0 out of 1107 total

Aerodrom Kalachevo: 123.300
Aerodrom Marianovka: 123.000
Emergency/Guard: 121.500
Novosibirsk Control (Sector 7): 132.500
Novosibirsk Control (Sector 8): 132.900
Omsk Approach (FL060-FL265): 131.200
Omsk Apron: 118.800
Omsk Start/Radar: 119.000
Omsk Taxiing: 121.700
Omsk Transit: 131.700
UNOS/OMSK-Severny: 124.000

UNTT Gnd/Info/Radar/Control (Archives)
Tomsk, Russia

Feed Status: UP

Click on your favorite media player to listen:
Listen with WinAmp to UNTT Gnd/Info/Radar/Control  Listen with iTunes to UNTT Gnd/Info/Radar/Control  Click here to listen if using Real Player  Click here to listen if using Windows Media Player

Or simply listen in your browser:

Listen right in your browser(in browser, requires Flash)

UNTT Flight Activity (Flightaware)

Listeners: 0 out of 1107 total

Common Backup Frequency: 129.000
Emergency/Guard: 121.500
Novosibirsk Control (Sector 2): 126.100
Novosibirsk Control (Sector 3): 129.300
Novosibirsk Control (Sector 5): 132.300
Tomsk Ground: 118.800
Tomsk Information 1: 134.500
Tomsk Krug (Radar): 127.300
Tomsk Transit: 131.875
Troynik (Golovino): 122.400

USCC Twr/App/Control (Archives)
Chelyabinsk, Russia

Feed Status: UP

Click on your favorite media player to listen:
Listen with WinAmp to USCC Twr/App/Control  Listen with iTunes to USCC Twr/App/Control  Click here to listen if using Real Player  Click here to listen if using Windows Media Player

Or simply listen in your browser:

Listen right in your browser(in browser, requires Flash)

USCC 192300Z 24005MPS 9999 SCT030CB 03/M01 Q1000 R27/290050 NOSIG RMK QFE730

USCC Flight Activity (Flightaware)

Listeners: 0 out of 1107 total

Airfield Services: 163.380
Airfield Services: 163.500
Airfield Services: 163.950
Airfield Services: 164.150
Chelyabinsk Approach: 124.700
Chelyabinsk Control (North): 125.400
Chelyabinsk Control (South): 125.500
Chelyabinsk Tower: 125.200
Chelyabinsk Transit: 131.600
Emergency/Guard: 121.500

USTR Gnd/Twr/App (Archives)
Tyumen, Russia

Feed Status: UP

Click on your favorite media player to listen:
Listen with WinAmp to USTR Gnd/Twr/App  Listen with iTunes to USTR Gnd/Twr/App  Click here to listen if using Real Player  Click here to listen if using Windows Media Player

Or simply listen in your browser:

Listen right in your browser(in browser, requires Flash)

USTR 192300Z 25006MPS 9999 SCT026CB 04/02 Q0995 R21/290060 NOSIG RMK QFE737/0982

USTR Flight Activity (Flightaware)

Listeners: 0 out of 1107 total

Tyumen Approach: 126.100
Tyumen Control: 132.600
Tyumen Control: 133.600
Tyumen Info (Regional): 133.400
Tyumen Start: 118.200
Tyumen Transit: 131.800

UTDL Gnd/Twr/App/ACC
Khujand, Tajikistan

Feed Status: DOWN
Offline since: 2017-08-25 20:01:04 UTC
UTDL 192300Z 08004MPS 9999 FEW230 10/05 Q1027 88CLRD70 NOSIG RMK QFE731/0975

Dushanbe ACC: 133.100
Khujand Approach: 124.800
Khujand Ground: 121.900
Khujand Tower: 120.300

VCBI Tower
Colombo, Sri Lanka

Feed Status: DOWN
Offline since: 2017-10-19 14:43:02 UTC
VCBI 192310Z 21013KT 6000 SHRA FEW010 BKN015 26/24 Q1009 NOSIG

Colombo Tower: 118.700

VHHH App/Dep/Radar (Archives)
Hong Kong, Hong Kong

Feed Status: UP

Click on your favorite media player to listen:
Listen with WinAmp to VHHH App/Dep/Radar  Listen with iTunes to VHHH App/Dep/Radar  Click here to listen if using Real Player  Click here to listen if using Windows Media Player

Or simply listen in your browser:

Listen right in your browser(in browser, requires Flash)

VHHH 192300Z 35010KT 9999 FEW028 23/17 Q1013 NOSIG

VHHH Flight Activity (Flightaware)

Listeners: 0 out of 1107 total

Hong Kong Approach: 119.100
Hong Kong Departure Control: 122.000
Hong Kong Departure Control: 123.800
Hong Kong Director: 119.500
Hong Kong Zone Control: 120.600


Note: Feed manually alternates between listed frequencies.

VHHH Approach 119.1 (Archives)
Hong Kong, Hong Kong

Feed Status: UP

Click on your favorite media player to listen:
Listen with WinAmp to VHHH Approach 119.1  Listen with iTunes to VHHH Approach 119.1  Click here to listen if using Real Player  Click here to listen if using Windows Media Player

Or simply listen in your browser:

Listen right in your browser(in browser, requires Flash)

VHHH 192300Z 35010KT 9999 FEW028 23/17 Q1013 NOSIG

VHHH Flight Activity (Flightaware)

Listeners: 0 out of 1107 total

Hong Kong Approach: 119.100

VHHH ATIS (Archives)
Hong Kong, Hong Kong

Feed Status: UP

Click on your favorite media player to listen:
Listen with WinAmp to VHHH ATIS  Listen with iTunes to VHHH ATIS  Click here to listen if using Real Player  Click here to listen if using Windows Media Player

Or simply listen in your browser:

Listen right in your browser(in browser, requires Flash)

VHHH 192300Z 35010KT 9999 FEW028 23/17 Q1013 NOSIG

VHHH Flight Activity (Flightaware)

Listeners: 0 out of 1107 total

Hong Kong Arrival ATIS: 128.200

VHHH Clearance Delivery (Archives)
Hong Kong, Hong Kong

Feed Status: UP

Click on your favorite media player to listen:
Listen with WinAmp to VHHH Clearance Delivery  Listen with iTunes to VHHH Clearance Delivery  Click here to listen if using Real Player  Click here to listen if using Windows Media Player

Or simply listen in your browser:

Listen right in your browser(in browser, requires Flash)

VHHH 192300Z 35010KT 9999 FEW028 23/17 Q1013 NOSIG

VHHH Flight Activity (Flightaware)

Listeners: 0 out of 1107 total

Hong Kong Clearance Delivery: 129.900

VHHH Director (Archives)
Hong Kong, Hong Kong

Feed Status: UP

Click on your favorite media player to listen:
Listen with WinAmp to VHHH Director  Listen with iTunes to VHHH Director  Click here to listen if using Real Player  Click here to listen if using Windows Media Player

Or simply listen in your browser:

Listen right in your browser(in browser, requires Flash)

VHHH 192300Z 35010KT 9999 FEW028 23/17 Q1013 NOSIG

VHHH Flight Activity (Flightaware)

Listeners: 0 out of 1107 total

Hong Kong Director: 119.500

VHHH Ground (Archives)
Hong Kong, Hong Kong

Feed Status: UP

Click on your favorite media player to listen:
Listen with WinAmp to VHHH Ground  Listen with iTunes to VHHH Ground  Click here to listen if using Real Player  Click here to listen if using Windows Media Player

Or simply listen in your browser:

Listen right in your browser(in browser, requires Flash)

VHHH 192300Z 35010KT 9999 FEW028 23/17 Q1013 NOSIG

VHHH Flight Activity (Flightaware)

Listeners: 2 out of 1107 total

Hong Kong Ground (North): 121.600
Hong Kong Ground (South): 122.550

VHHH Ground (North) (Archives)
Hong Kong, Hong Kong

Feed Status: UP

Click on your favorite media player to listen:
Listen with WinAmp to VHHH Ground (North)  Listen with iTunes to VHHH Ground (North)  Click here to listen if using Real Player  Click here to listen if using Windows Media Player

Or simply listen in your browser:

Listen right in your browser(in browser, requires Flash)

VHHH 192300Z 35010KT 9999 FEW028 23/17 Q1013 NOSIG

VHHH Flight Activity (Flightaware)

Listeners: 0 out of 1107 total

Hong Kong Ground (North): 121.600

VHHH Ground (South) (Archives)
Hong Kong, Hong Kong

Feed Status: UP

Click on your favorite media player to listen:
Listen with WinAmp to VHHH Ground (South)  Listen with iTunes to VHHH Ground (South)  Click here to listen if using Real Player  Click here to listen if using Windows Media Player

Or simply listen in your browser:

Listen right in your browser(in browser, requires Flash)

VHHH 192300Z 35010KT 9999 FEW028 23/17 Q1013 NOSIG

VHHH Flight Activity (Flightaware)

Listeners: 0 out of 1107 total

Hong Kong Ground (South): 122.550

VHHH Tower (Archives)
Hong Kong, Hong Kong

Feed Status: UP

Click on your favorite media player to listen:
Listen with WinAmp to VHHH Tower  Listen with iTunes to VHHH Tower  Click here to listen if using Real Player  Click here to listen if using Windows Media Player

Or simply listen in your browser:

Listen right in your browser(in browser, requires Flash)

VHHH 192300Z 35010KT 9999 FEW028 23/17 Q1013 NOSIG

VHHH Flight Activity (Flightaware)

Listeners: 2 out of 1107 total

Hong Kong Tower (North): 118.200
Hong Kong Tower (South): 118.400

VHHH Tower (North) (Archives)
Hong Kong, Hong Kong

Feed Status: UP

Click on your favorite media player to listen:
Listen with WinAmp to VHHH Tower (North)  Listen with iTunes to VHHH Tower (North)  Click here to listen if using Real Player  Click here to listen if using Windows Media Player

Or simply listen in your browser:

Listen right in your browser(in browser, requires Flash)

VHHH 192300Z 35010KT 9999 FEW028 23/17 Q1013 NOSIG

VHHH Flight Activity (Flightaware)

Listeners: 1 out of 1107 total

Hong Kong Tower (North): 118.200

VHHH Tower (South) (Archives)
Hong Kong, Hong Kong

Feed Status: UP

Click on your favorite media player to listen:
Listen with WinAmp to VHHH Tower (South)  Listen with iTunes to VHHH Tower (South)  Click here to listen if using Real Player  Click here to listen if using Windows Media Player

Or simply listen in your browser:

Listen right in your browser(in browser, requires Flash)

VHHH 192300Z 35010KT 9999 FEW028 23/17 Q1013 NOSIG

VHHH Flight Activity (Flightaware)

Listeners: 3 out of 1107 total

Hong Kong Tower (South): 118.400

VHHH Zone (Archives)
Hong Kong, Hong Kong

Feed Status: UP

Click on your favorite media player to listen:
Listen with WinAmp to VHHH Zone  Listen with iTunes to VHHH Zone  Click here to listen if using Real Player  Click here to listen if using Windows Media Player

Or simply listen in your browser:

Listen right in your browser(in browser, requires Flash)

VHHH 192300Z 35010KT 9999 FEW028 23/17 Q1013 NOSIG

VHHH Flight Activity (Flightaware)

Listeners: 0 out of 1107 total

Hong Kong Zone: 120.600

VNKT Twr/App/Control (Archives)
Kathmandu, Nepal

Feed Status: UP

Click on your favorite media player to listen:
Listen with WinAmp to VNKT Twr/App/Control  Listen with iTunes to VNKT Twr/App/Control  Click here to listen if using Real Player  Click here to listen if using Windows Media Player

Or simply listen in your browser:

Listen right in your browser(in browser, requires Flash)

VNKT 192250Z 11003KT 7000 FEW015 16/15 Q1017 NOSIG

VNKT Flight Activity (Flightaware)

Listeners: 0 out of 1107 total

Kathmandu Approach: 120.600
Kathmandu Control: 126.500
Kathmandu Tower: 118.100
Kathmandu Tower (backup): 118.500

NOTE: This feed will only be up for a few hours each day

VTBS App/Dep (Archives)
Bangkok, Thailand

Feed Status: UP

Click on your favorite media player to listen:
Listen with WinAmp to VTBS App/Dep  Listen with iTunes to VTBS App/Dep  Click here to listen if using Real Player  Click here to listen if using Windows Media Player

Or simply listen in your browser:

Listen right in your browser(in browser, requires Flash)

VTBS 192300Z VRB05KT 9999 FEW040 27/22 Q1012 NOSIG

VTBS Flight Activity (Flightaware)

Listeners: 1 out of 1107 total

Bangkok Approach: 122.350
Bangkok Approach: 124.350
Bangkok Approach: 125.200
Bangkok Approach: 119.400
Bangkok Approach: 125.800
Bangkok Approach/Departure: 119.100
Bangkok Approach/Departure: 121.700
Bangkok Arrival: 121.100

VTBS Gnd/Twr (Archives)
Bangkok, Thailand

Feed Status: UP

Click on your favorite media player to listen:
Listen with WinAmp to VTBS Gnd/Twr  Listen with iTunes to VTBS Gnd/Twr  Click here to listen if using Real Player  Click here to listen if using Windows Media Player

Or simply listen in your browser:

Listen right in your browser(in browser, requires Flash)

VTBS 192300Z VRB05KT 9999 FEW040 27/22 Q1012 NOSIG

VTBS Flight Activity (Flightaware)

Listeners: 0 out of 1107 total

Bangkok Ground: 121.650
Bangkok Ground: 121.750
Bangkok Ground: 121.950
Bangkok Tower: 119.000
Bangkok Tower: 118.200

VTSS Approach (Archives)
Songkhla, Thailand

Feed Status: UP

Click on your favorite media player to listen:
Listen with WinAmp to VTSS Approach  Listen with iTunes to VTSS Approach  Click here to listen if using Real Player  Click here to listen if using Windows Media Player

Or simply listen in your browser:

Listen right in your browser(in browser, requires Flash)

VTSS 192300Z 25002KT 7000 3000W FEW020 SCT100 26/25 Q1011 NOSIG

VTSS Flight Activity (Flightaware)

Listeners: 0 out of 1107 total

Hat Yai Approach: 126.700

WARR Gnd/Twr/Radar (Archives)
Surabaya, Indonesia

Feed Status: UP

Click on your favorite media player to listen:
Listen with WinAmp to WARR Gnd/Twr/Radar  Listen with iTunes to WARR Gnd/Twr/Radar  Click here to listen if using Real Player  Click here to listen if using Windows Media Player

Or simply listen in your browser:

Listen right in your browser(in browser, requires Flash)

WARR 192300Z 00000KT 5000 HZ FEW020 26/23 Q1012 NOSIG


Listeners: 0 out of 1107 total

Juanda Ground: 119.150
Juanda Tower: 118.300
Surabaya Director: 123.200
Surabaya East Control: 124.000
Surabaya West Control: 125.100

WBKK Gnd/Twr/App (Archives)
Kota Kinabalu, Malaysia

Feed Status: UP

Click on your favorite media player to listen:
Listen with WinAmp to WBKK Gnd/Twr/App  Listen with iTunes to WBKK Gnd/Twr/App  Click here to listen if using Real Player  Click here to listen if using Windows Media Player

Or simply listen in your browser:

Listen right in your browser(in browser, requires Flash)

WBKK 192300Z 15003KT 120V210 4000 +RA FEW013 SCT035 OVC260 25/25 Q1010 RETSRA NOSIG


Listeners: 1 out of 1107 total

Kinabalu Director: 119.100
Kinabalu Ground: 121.600
Kinabalu Radar: 126.100
Kinabalu Radar: 132.450
Kinabalu Tower: 118.300

WMKB Radar (Archives)
Penang, Malaysia

Feed Status: UP

Click on your favorite media player to listen:
Listen with WinAmp to WMKB Radar  Listen with iTunes to WMKB Radar  Click here to listen if using Real Player  Click here to listen if using Windows Media Player

Or simply listen in your browser:

Listen right in your browser(in browser, requires Flash)

WMKB 192300Z 08003KT 8000 FEW025 SCT140 BKN270 27/26 Q1011 NOSIG


Listeners: 2 out of 1107 total

Butterworth Radar: 125.800

Lumpur Control/Radar (North) (Archives)
Sepang, Malaysia

Feed Status: UP

Click on your favorite media player to listen:
Listen with WinAmp to Lumpur Control/Radar (North)  Listen with iTunes to Lumpur Control/Radar (North)  Click here to listen if using Real Player  Click here to listen if using Windows Media Player

Or simply listen in your browser:

Listen right in your browser(in browser, requires Flash)

WMKK 192300Z VRB01KT 8000 FEW030 SCT140 BKN280 27/25 Q1011 NOSIG


Listeners: 1 out of 1107 total

Lumpur Control/Radar (North): 132.800

Lumpur Control/Radar (South)
Sepang, Malaysia

Feed Status: DOWN
Offline since: 2017-10-19 10:52:03 UTC
WMKK 192300Z VRB01KT 8000 FEW030 SCT140 BKN280 27/25 Q1011 NOSIG

Lumpur Control/Radar (South): 123.750

WMKK Lumpur Control/Radar (East) (Archives)
Sepang, Malaysia

Feed Status: UP

Click on your favorite media player to listen:
Listen with WinAmp to WMKK Lumpur Control/Radar (East)  Listen with iTunes to WMKK Lumpur Control/Radar (East)  Click here to listen if using Real Player  Click here to listen if using Windows Media Player

Or simply listen in your browser:

Listen right in your browser(in browser, requires Flash)

WMKK 192300Z VRB01KT 8000 FEW030 SCT140 BKN280 27/25 Q1011 NOSIG


Listeners: 0 out of 1107 total

Lumpur Contro/Radar (East): 134.250

WMKP Tower (Archives)
Penang, Malaysia

Feed Status: UP

Click on your favorite media player to listen:
Listen with WinAmp to WMKP Tower  Listen with iTunes to WMKP Tower  Click here to listen if using Real Player  Click here to listen if using Windows Media Player

Or simply listen in your browser:

Listen right in your browser(in browser, requires Flash)

WMKP 192300Z 00000KT 8000 FEW025 SCT150 BKN270 27/25 Q1011 NOSIG


Listeners: 0 out of 1107 total

Penang Tower: 121.100

ZBAA Tower
Beijing, China

Feed Status: DOWN
Offline since: 2017-10-18 13:47:02 UTC
ZBAA 192300Z VRB01MPS 1500 BR NSC 13/12 Q1020 BECMG TL2340 1200 BR

Beijing Tower (Rwy 01/19): 118.600

ZGKL App/Control (Archives)
Guilin, China

Feed Status: UP

Click on your favorite media player to listen:
Listen with WinAmp to ZGKL App/Control  Listen with iTunes to ZGKL App/Control  Click here to listen if using Real Player  Click here to listen if using Windows Media Player

Or simply listen in your browser:

Listen right in your browser(in browser, requires Flash)

ZGKL 192300Z 04003MPS 020V100 9999 FEW033 BKN073 18/14 Q1018 NOSIG


Listeners: 4 out of 1107 total

Guilin Approach: 120.850
Guilin Control: 133.600